Вернуться в каталог

STARLINK-31619

АктивенСвязьVLEO
NORAD 59531·PAYLOAD·🇺🇸 United States

Запущен Apr 17, 2024 с Cape Canaveral Space Force Station

Loading…

Ближайшие Пролёты (ближайшие 24 часа)

TLE

СвежийSource: CelesTrak SupGP

Эпоха: Sep 15, 2026, 02:18 UTC

1 59531C 24073W   26258.09631944  .00046225  00000+0  16743-2 0  2587
2 59531  43.0014 328.2125 0001455 264.6977 126.8209 15.27554914    18

Отслеживайте STARLINK-31619 в реальном времени с AllMySat

Download on the App Store